Terug naar catalogus

STARLINK-31916

ActiefCommunicatieVLEO
NORAD 59795·PAYLOAD·🇺🇸 United States

Gelanceerd May 18, 2024 vanaf Cape Canaveral Space Force Station

Loading…

Volgende Passages (komende 24 uur)

TLE

VersSource: CelesTrak SupGP

Epoch: Sep 14, 2026, 21:16 UTC

1 59795C 24093P   26257.88659722  .00033072  00000+0  11978-2 0  2571
2 59795  43.0003 220.4173 0001356 261.2608 347.6385 15.27562512    19

Volg STARLINK-31916 in realtime met AllMySat

Download on the App Store